Preview of NWS' New Version of Forecast
This preview is not operational and should not be used for support decisions.

Regional Weather Roundup (RWR)

Issued by National Weather Service (NWS)

                            
000
ASUS46 KPQR 180510
RWROR 

OREGON REGIONAL WEATHER ROUNDUP
NATIONAL WEATHER SERVICE PORTLAND OR
1000 PM PDT WED APR 17 2019

NOTE: "FAIR" INDICATES FEW OR NO CLOUDS BELOW 12,000 FEET WITH
NO SIGNIFICANT WEATHER AND/OR OBSTRUCTIONS TO VISIBILITY.

ORZ001>013-180600-
NORTHWEST OREGON

  
CITY           SKY/WX    TMP DP  RH WIND       PRES   REMARKS
ASTORIA        CLEAR     51  47  86 CALM      30.32R                  
TILLAMOOK      PTCLDY    52  50  93 CALM      30.34R                  
NEWPORT        PTCLDY    50  48  93 CALM      30.34S FOG              
PORTLAND       PTCLDY    56  45  66 CALM      30.32R                  
VANCOUVER WA   CLOUDY    55  46  71 CALM      30.31R                  
SCAPPOOSE      CLOUDY    55  49  80 CALM      30.30R                  
HILLSBORO      PTCLDY    51  47  86 CALM      30.30R                  
AURORA         CLEAR     53  48  83 NW3       30.32R                  
MCMINNVILLE    CLEAR     53  48  83 N3        30.30R                  
SALEM          CLEAR     53  48  83 CALM      30.30R                  
CORVALLIS      CLEAR     55  51  86 W5        30.31R                  
EUGENE         CLEAR     54  49  83 CALM      30.30R                  
$$

ORZ021-028-180600-
SOUTHWEST OREGON

  
CITY           SKY/WX    TMP DP  RH WIND       PRES   REMARKS
NORTH BEND     CLEAR     53  50  89 N3        30.32S                  
BROOKINGS      CLEAR     52  49  89 CALM      30.26R                  
ROSEBURG       CLEAR     61  48  62 CALM      30.29R                  
SEXTON SUMMIT  CLEAR     52  39  61 N10       30.33R                  
GRANTS PASS    FAIR      59  50  72 CALM      30.29R                  
MEDFORD        CLEAR     61  43  51 NW6       30.27R                  
$$

ORZ014>016-041-180600-
COLUMBIA GORGE

  
CITY           SKY/WX    TMP DP  RH WIND       PRES   REMARKS
TROUTDALE      CLEAR     55  47  74 E5        30.31R                  
HOOD RIVER     CLEAR     54  43  66 MISG      30.30R                  
THE DALLES     CLEAR     59  44  57 SW7       30.28R                  
$$

ORZ029>031-041-044-049-050-061>064-502-503-505>511-180600-
EASTERN OREGON

  
CITY           SKY/WX    TMP DP  RH WIND       PRES   REMARKS
MADRAS         CLEAR     54  41  62 N6        30.31R                  
REDMOND        CLEAR     56  38  50 NW6       30.30R                  
BEND           CLEAR     50  37  62 CALM      30.32R                  
PRINEVILLE     CLEAR     52  37  58 CALM      30.31R                  
KLAMATH FALLS  CLEAR     48  40  73 E7        30.32R                  
LAKEVIEW       CLEAR     44  40  85 NW9       30.34R                  
HERMISTON      CLEAR     52  40  63 S8        30.25R                  
PENDLETON      CLEAR     51  39  63 S8        30.27R                  
JOHN DAY       CLEAR     49  40  71 E7        30.32R                  
MEACHAM        CLEAR     37  33  85 CALM      30.31R                  
LA GRANDE      CLEAR     47  40  76 SE9       30.31R                  
BAKER CITY     CLEAR     44  38  79 SW3       30.31R                  
BURNS          CLEAR     44  39  82 CALM      30.32R                  
ROME             N/A     49  41  74 SE10      30.30R                  
ONTARIO        CLEAR     50  39  66 W5        30.29R                  
$$